GFSNW_700_temp_162.txt.gz
Temp
-7 -7 -6 -7 -6 -7 -6 -6 -6 -6 -6 -6 -5 -4 -5 -4 -3 -3 -2 -1 -1 -0 0 0 0 0 0 -0 -1 -1 -0 -0 -0 1 1 2 2 2 2 2 2 2 2 1
-7 -7 -7 -6 -7 -7 -6 -7 -8 -7 -7 -6 -5 -6 -5 -5 -5 -4 -3 -2 -2 -2 -1 -1 -1 -1 -1 -1 -2 -2 -2 -1 -1 0 1 1 1 1 1 1 1 1 1 1
-7 -7 -7 -7 -7 -7 -8 -8 -8 -8 -7 -5 -6 -6 -5 -5 -6 -5 -4 -4 -3 -3 -3 -3 -2 -2 -2 -2 -2 -3 -3 -3 -2 -2 -1 -1 -1 -0 0 0 -0 -1 -1 -0
-7 -8 -7 -7 -7 -8 -9 -8 -8 -7 -6 -5 -7 -6 -5 -5 -5 -6 -5 -5 -4 -4 -4 -3 -3 -3 -3 -3 -3 -3 -4 -4 -3 -3 -2 -2 -2 -1 -1 -1 -0 0 0 0
-7 -8 -8 -7 -7 -8 -8 -8 -8 -8 -7 -6 -6 -6 -6 -5 -5 -6 -4 -5 -4 -4 -4 -4 -3 -2 -3 -3 -3 -3 -4 -4 -4 -4 -3 -2 -2 -1 -1 -0 -0 -0 -0 0
-7 -9 -9 -8 -7 -9 -9 -9 -8 -8 -7 -7 -6 -6 -6 -6 -6 -5 -5 -5 -5 -4 -4 -4 -4 -4 -4 -5 -5 -5 -4 -4 -4 -4 -3 -2 -3 -2 -1 -1 -1 -1 -0 -0
-9 -10 -9 -8 -8 -8 -9 -9 -9 -8 -8 -8 -7 -7 -6 -6 -6 -6 -5 -6 -6 -5 -6 -5 -5 -5 -5 -6 -6 -6 -6 -5 -5 -4 -4 -4 -3 -2 -1 -1 -1 -1 -1 -2
-11 -10 -9 -8 -8 -8 -9 -9 -8 -8 -8 -8 -8 -8 -7 -7 -7 -7 -6 -6 -6 -7 -6 -7 -6 -6 -6 -6 -6 -6 -6 -6 -6 -5 -4 -3 -3 -1 -1 -2 -1 -2 -2 -2
-11 -11 -9 -8 -8 -8 -9 -9 -9 -8 -8 -7 -7 -7 -7 -7 -7 -7 -8 -7 -6 -7 -7 -7 -7 -5 -3 -3 -3 -4 -5 -6 -6 -5 -4 -3 -2 -2 -3 -3 -2 -2 -3 -3
-11 -11 -8 -8 -8 -9 -10 -9 -9 -8 -8 -7 -7 -7 -7 -7 -7 -7 -7 -7 -7 -7 -7 -7 -7 -6 -5 -4 -3 -3 -5 -6 -6 -6 -5 -3 -3 -2 -3 -3 -2 -3 -3 -3
-11 -10 -9 -8 -8 -9 -9 -9 -10 -9 -8 -8 -7 -7 -7 -7 -7 -7 -7 -7 -7 -7 -7 -7 -6 -5 -4 -3 -3 -3 -4 -5 -5 -5 -4 -4 -3 -3 -4 -3 -3 -3 -4 -4
-11 -9 -8 -8 -9 -8 -10 -9 -10 -9 -8 -8 -8 -7 -6 -7 -7 -7 -7 -7 -7 -6 -7 -6 -6 -5 -5 -4 -4 -4 -4 -3 -3 -3 -4 -4 -4 -4 -4 -4 -4 -4 -4 -4
-10 -9 -8 -9 -8 -10 -10 -10 -10 -9 -9 -8 -8 -7 -7 -7 -7 -7 -7 -7 -7 -6 -7 -6 -6 -5 -5 -5 -4 -4 -4 -4 -4 -5 -3 -3 -4 -4 -3 -4 -4 -4 -4 -4
-9 -8 -9 -9 -10 -10 -10 -10 -9 -9 -9 -9 -8 -8 -7 -6 -7 -7 -7 -7 -7 -6 -7 -7 -7 -7 -6 -5 -5 -5 -5 -4 -4 -4 -3 -4 -4 -4 -5 -4 -4 -4 -4 -4
-9 -9 -10 -10 -10 -10 -10 -10 -10 -9 -9 -9 -8 -8 -7 -7 -7 -7 -7 -7 -7 -7 -8 -8 -8 -7 -7 -6 -6 -5 -4 -4 -4 -4 -4 -5 -5 -4 -5 -5 -5 -4 -4 -4
-9 -9 -10 -10 -10 -10 -10 -10 -10 -10 -10 -9 -9 -9 -8 -8 -7 -7 -7 -7 -7 -8 -8 -7 -7 -7 -7 -7 -6 -5 -5 -5 -5 -5 -4 -4 -5 -5 -5 -5 -5 -4 -4 -4
-9 -9 -10 -10 -10 -10 -10 -10 -9 -10 -10 -10 -10 -9 -8 -8 -8 -7 -7 -7 -7 -8 -8 -8 -7 -6 -7 -7 -6 -5 -5 -6 -5 -5 -5 -5 -5 -5 -5 -5 -5 -5 -5 -5
-9 -9 -10 -10 -10 -10 -10 -10 -10 -10 -10 -10 -10 -9 -8 -8 -7 -7 -7 -7 -8 -8 -8 -8 -7 -7 -7 -7 -5 -6 -6 -6 -6 -5 -5 -5 -5 -5 -5 -5 -5 -5 -5 -5
-10 -10 -10 -10 -10 -10 -10 -11 -10 -10 -10 -10 -10 -9 -8 -7 -7 -7 -7 -8 -8 -8 -7 -7 -7 -7 -7 -6 -6 -6 -6 -6 -6 -6 -6 -5 -5 -5 -5 -5 -5 -5 -5 -6
-10 -10 -10 -10 -10 -10 -11 -11 -10 -10 -10 -10 -10 -9 -9 -8 -8 -8 -8 -8 -8 -7 -7 -7 -7 -7 -6 -7 -7 -7 -7 -6 -7 -7 -6 -6 -6 -6 -6 -6 -6 -6 -6 -6
-10 -11 -10 -10 -11 -11 -11 -11 -11 -10 -10 -9 -8 -8 -9 -9 -8 -8 -8 -7 -7 -7 -7 -7 -7 -7 -7 -7 -6 -7 -7 -7 -8 -8 -7 -6 -6 -6 -6 -6 -6 -6 -6 -7
-10 -10 -10 -10 -11 -11 -11 -10 -10 -9 -9 -8 -7 -8 -8 -8 -8 -8 -8 -7 -7 -7 -7 -7 -7 -7 -6 -7 -7 -7 -7 -7 -7 -7 -7 -7 -6 -6 -6 -6 -6 -6 -7 -7
-10 -11 -11 -10 -10 -10 -10 -10 -9 -9 -8 -8 -7 -8 -8 -9 -8 -8 -8 -8 -8 -8 -8 -8 -8 -7 -7 -7 -7 -7 -6 -7 -7 -6 -7 -7 -7 -7 -7 -7 -7 -7 -7 -8
-11 -11 -11 -10 -10 -10 -9 -9 -9 -9 -8 -8 -8 -8 -9 -9 -8 -8 -8 -8 -9 -8 -8 -8 -7 -8 -7 -7 -7 -7 -7 -8 -8 -8 -8 -7 -7 -7 -7 -7 -7 -7 -8 -8
-11 -10 -10 -10 -10 -9 -9 -9 -9 -8 -8 -8 -8 -9 -8 -9 -8 -9 -8 -8 -9 -8 -7 -7 -7 -8 -7 -7 -8 -8 -8 -9 -8 -8 -8 -8 -7 -7 -7 -7 -8 -8 -8 -8
-10 -10 -10 -10 -10 -10 -9 -9 -9 -9 -9 -9 -9 -9 -9 -9 -9 -9 -9 -8 -7 -8 -8 -8 -7 -7 -7 -8 -8 -9 -9 -9 -9 -8 -8 -8 -8 -8 -8 -8 -9 -9 -9 -9
-10 -11 -10 -10 -10 -10 -10 -10 -9 -9 -9 -9 -9 -9 -9 -8 -9 -9 -8 -8 -8 -8 -8 -8 -8 -8 -8 -8 -8 -9 -9 -9 -9 -9 -9 -9 -9 -9 -9 -9 -9 -9 -9 -9

GFSNW_700_temp_165.txt.gz
Temp
-7 -7 -6 -6 -6 -7 -7 -7 -6 -6 -7 -7 -6 -5 -4 -3 -3 -3 -3 -2 -1 -1 0 0 0 1 0 0 0 -0 -0 -1 -1 -0 1 1 1 1 1 1 1 1 1 0
-7 -7 -7 -7 -7 -7 -8 -8 -8 -7 -7 -7 -6 -5 -4 -4 -3 -4 -4 -3 -2 -1 -1 -1 -0 -0 0 -1 -1 -1 -1 -1 -1 -1 -0 1 0 1 0 -0 -0 0 -3 -0
-7 -7 -7 -7 -8 -8 -8 -9 -8 -8 -8 -6 -7 -6 -5 -5 -4 -5 -4 -4 -3 -2 -2 -1 -2 -2 -1 -1 -2 -2 -2 -2 -2 -3 -1 -2 -2 -1 -1 -2 -1 -1 -1 -1
-7 -7 -7 -7 -8 -9 -9 -8 -7 -8 -8 -7 -7 -7 -6 -5 -5 -5 -5 -4 -3 -3 -3 -3 -2 -2 -2 -2 -2 -2 -2 -3 -3 -2 -3 -3 -3 -2 -2 -2 -2 -2 -1 -1
-8 -7 -7 -7 -7 -8 -7 -8 -8 -8 -8 -7 -7 -7 -6 -6 -5 -5 -5 -5 -4 -4 -4 -4 -3 -3 -3 -3 -3 -3 -3 -3 -4 -4 -4 -4 -3 -3 -3 -2 -2 -2 -1 -1
-8 -8 -7 -8 -9 -8 -8 -7 -8 -8 -8 -8 -7 -6 -6 -6 -6 -6 -6 -6 -5 -5 -4 -4 -4 -4 -4 -3 -3 -3 -4 -4 -4 -4 -4 -4 -4 -3 -3 -2 -2 -2 -1 -1
-9 -8 -8 -8 -9 -8 -8 -7 -8 -8 -8 -8 -7 -6 -6 -6 -6 -7 -6 -6 -5 -5 -5 -5 -4 -4 -4 -4 -4 -4 -4 -4 -5 -5 -5 -6 -4 -3 -2 -2 -2 -2 -2 -1
-11 -10 -10 -10 -9 -8 -8 -8 -8 -8 -8 -8 -8 -7 -7 -6 -6 -6 -6 -6 -6 -5 -6 -6 -6 -5 -5 -4 -3 -3 -4 -6 -6 -6 -6 -5 -4 -2 -2 -3 -3 -2 -2 -2
-12 -12 -11 -11 -10 -9 -8 -8 -8 -8 -8 -8 -8 -7 -7 -7 -7 -7 -7 -6 -6 -6 -7 -7 -7 -6 -5 -4 -3 -3 -4 -5 -6 -6 -6 -5 -2 -2 -3 -3 -2 -2 -2 -3
-12 -12 -12 -11 -10 -9 -8 -8 -8 -9 -8 -8 -8 -7 -7 -7 -7 -6 -6 -6 -7 -7 -7 -7 -7 -7 -6 -5 -4 -4 -5 -5 -6 -6 -6 -5 -4 -3 -3 -3 -3 -3 -2 -3
-13 -13 -12 -12 -10 -9 -8 -8 -9 -9 -9 -8 -7 -7 -8 -8 -7 -6 -6 -7 -7 -7 -7 -7 -7 -7 -5 -5 -4 -4 -5 -5 -5 -6 -6 -6 -4 -3 -4 -4 -4 -4 -4 -4
-13 -12 -12 -11 -9 -9 -9 -9 -9 -9 -8 -8 -8 -7 -7 -7 -7 -7 -7 -7 -7 -7 -7 -7 -7 -6 -6 -5 -5 -4 -5 -4 -4 -4 -4 -3 -4 -3 -4 -4 -5 -4 -4 -4
-13 -12 -12 -11 -10 -9 -9 -9 -9 -8 -8 -9 -8 -8 -8 -7 -7 -6 -6 -7 -7 -7 -7 -7 -7 -7 -6 -5 -5 -4 -4 -4 -5 -4 -4 -4 -5 -4 -3 -4 -5 -4 -4 -4
-12 -12 -11 -11 -9 -9 -9 -9 -9 -9 -9 -9 -8 -8 -8 -7 -8 -7 -7 -7 -7 -7 -7 -7 -7 -7 -7 -6 -6 -6 -5 -5 -5 -5 -5 -5 -5 -5 -4 -4 -4 -5 -4 -4
-12 -11 -11 -10 -10 -9 -9 -9 -9 -9 -10 -9 -9 -8 -8 -7 -7 -7 -7 -7 -7 -7 -8 -7 -7 -7 -7 -6 -6 -5 -5 -5 -5 -5 -5 -5 -4 -5 -5 -5 -5 -5 -5 -4
-10 -10 -10 -9 -9 -9 -9 -10 -9 -10 -10 -10 -9 -8 -8 -7 -7 -7 -7 -7 -7 -8 -8 -7 -7 -7 -8 -7 -7 -5 -5 -5 -5 -5 -5 -5 -5 -5 -5 -5 -5 -5 -5 -5
-10 -9 -9 -9 -10 -10 -10 -10 -9 -10 -10 -10 -10 -9 -8 -8 -8 -7 -7 -8 -8 -8 -8 -8 -7 -8 -8 -8 -7 -5 -5 -5 -5 -5 -6 -5 -5 -5 -5 -6 -5 -5 -5 -5
-9 -9 -10 -10 -9 -10 -10 -10 -10 -10 -10 -10 -10 -9 -8 -8 -8 -8 -8 -8 -8 -8 -8 -8 -8 -8 -8 -8 -5 -5 -6 -5 -5 -6 -6 -6 -6 -6 -5 -5 -5 -5 -5 -5
-9 -10 -10 -10 -10 -10 -10 -10 -10 -10 -10 -10 -10 -9 -9 -8 -8 -8 -8 -8 -8 -8 -9 -8 -8 -8 -8 -6 -6 -6 -7 -6 -6 -6 -6 -6 -6 -6 -6 -6 -6 -5 -5 -5
-10 -10 -10 -10 -10 -10 -10 -10 -11 -10 -11 -10 -9 -9 -9 -9 -8 -8 -8 -8 -8 -8 -7 -7 -8 -7 -7 -7 -7 -6 -6 -6 -7 -7 -7 -7 -7 -6 -6 -6 -6 -6 -6 -6
-10 -10 -10 -10 -10 -10 -11 -11 -11 -11 -10 -9 -9 -9 -9 -9 -9 -9 -8 -8 -7 -7 -7 -7 -7 -7 -7 -7 -6 -6 -6 -7 -7 -7 -7 -7 -8 -7 -7 -7 -7 -6 -6 -6
-9 -9 -9 -10 -10 -11 -11 -11 -10 -10 -9 -9 -8 -8 -8 -8 -8 -9 -8 -7 -7 -7 -6 -7 -7 -7 -7 -7 -7 -7 -7 -7 -7 -7 -7 -8 -8 -8 -7 -7 -7 -7 -6 -7
-10 -10 -10 -10 -10 -11 -10 -10 -10 -9 -9 -8 -7 -8 -9 -8 -8 -9 -8 -8 -8 -8 -8 -8 -8 -7 -7 -7 -7 -7 -7 -7 -7 -7 -7 -8 -8 -7 -8 -8 -7 -7 -7 -8
-10 -10 -10 -10 -10 -10 -9 -9 -9 -9 -8 -9 -8 -8 -9 -9 -9 -9 -8 -8 -8 -9 -8 -8 -7 -7 -7 -7 -7 -7 -7 -7 -8 -8 -8 -8 -8 -8 -8 -8 -8 -8 -8 -8
-10 -10 -10 -10 -10 -9 -9 -9 -9 -9 -9 -9 -8 -9 -9 -9 -9 -9 -8 -8 -9 -8 -8 -8 -7 -8 -7 -7 -7 -7 -8 -8 -9 -8 -8 -8 -8 -8 -8 -8 -8 -8 -9 -9
-11 -10 -10 -10 -10 -9 -9 -9 -9 -9 -9 -9 -9 -8 -9 -9 -9 -9 -9 -9 -8 -8 -8 -8 -8 -8 -7 -8 -8 -8 -9 -9 -9 -9 -9 -9 -8 -8 -8 -9 -9 -9 -9 -9
-11 -10 -9 -10 -10 -10 -10 -10 -10 -9 -8 -9 -9 -9 -9 -9 -9 -9 -9 -8 -8 -8 -8 -8 -8 -8 -8 -8 -9 -9 -9 -9 -9 -9 -9 -9 -9 -9 -9 -9 -9 -9 -9 -10

GFSNW_700_temp_168.txt.gz
Temp
-7 -7 -8 -8 -7 -7 -7 -7 -6 -6 -7 -7 -7 -5 -4 -4 -4 -3 -4 -3 -2 -1 -1 -1 -1 -0 0 0 0 0 0 -0 -1 0 1 1 1 0 0 -0 -0 0 -0 -1
-8 -7 -7 -8 -8 -8 -7 -7 -7 -8 -7 -7 -6 -5 -5 -6 -5 -4 -4 -3 -3 -2 -1 -1 -2 -1 -1 -1 -1 -0 -0 -1 -1 -1 -0 -0 0 -1 -1 -2 -1 -1 -4 -1
-8 -8 -8 -8 -8 -8 -8 -8 -8 -8 -7 -7 -7 -7 -6 -6 -5 -5 -5 -4 -4 -3 -2 -2 -2 -1 -1 -1 -1 -2 -1 -1 -1 -2 -1 -1 -1 -1 -2 -3 -3 -3 -2 -2
-8 -8 -8 -8 -8 -8 -9 -8 -8 -7 -7 -6 -8 -7 -7 -7 -6 -5 -4 -5 -4 -3 -3 -2 -2 -2 -2 -2 -2 -2 -3 -2 -2 -2 -2 -2 -2 -2 -2 -3 -3 -4 -1 -2
-8 -8 -8 -8 -8 -8 -9 -8 -8 -7 -8 -7 -7 -8 -7 -7 -6 -6 -6 -5 -4 -4 -4 -3 -3 -3 -3 -3 -3 -2 -3 -3 -3 -3 -3 -3 -3 -4 -4 -3 -2 -3 -3 -2
-9 -9 -9 -8 -8 -9 -8 -8 -8 -8 -7 -7 -8 -7 -7 -7 -6 -6 -6 -5 -5 -5 -5 -4 -4 -4 -4 -4 -3 -3 -3 -3 -4 -4 -4 -5 -5 -4 -3 -2 -3 -3 -3 -2
-10 -9 -9 -9 -9 -8 -8 -8 -8 -8 -8 -8 -8 -7 -7 -7 -6 -7 -6 -6 -7 -6 -6 -5 -5 -5 -5 -4 -4 -4 -4 -4 -4 -5 -6 -6 -4 -4 -3 -4 -4 -3 -2 -2
-10 -9 -9 -9 -9 -9 -10 -9 -9 -9 -7 -8 -8 -8 -8 -7 -7 -7 -7 -6 -7 -7 -7 -6 -5 -5 -5 -5 -4 -4 -4 -4 -5 -6 -5 -5 -5 -3 -3 -3 -3 -3 -3 -2
-10 -10 -10 -10 -9 -9 -10 -10 -8 -9 -8 -8 -8 -8 -8 -7 -7 -7 -7 -7 -7 -7 -7 -6 -6 -6 -5 -5 -4 -3 -3 -4 -5 -6 -6 -6 -3 -3 -3 -4 -3 -3 -3 -3
-11 -11 -11 -12 -11 -10 -10 -10 -9 -9 -9 -8 -8 -8 -8 -7 -8 -7 -7 -7 -7 -7 -7 -7 -7 -7 -6 -6 -5 -4 -5 -7 -6 -6 -6 -5 -3 -3 -4 -4 -3 -3 -3 -3
-13 -12 -12 -12 -12 -12 -11 -9 -9 -9 -9 -8 -8 -8 -8 -7 -8 -8 -7 -7 -8 -7 -7 -7 -7 -7 -7 -6 -5 -5 -5 -5 -6 -7 -6 -6 -3 -4 -4 -4 -4 -4 -3 -3
-13 -13 -13 -12 -12 -12 -11 -10 -9 -9 -9 -8 -8 -8 -7 -7 -8 -8 -8 -7 -6 -6 -7 -7 -7 -7 -7 -6 -6 -5 -5 -5 -5 -5 -4 -4 -4 -4 -4 -4 -4 -4 -3 -3
-13 -13 -13 -13 -12 -12 -11 -10 -9 -9 -9 -9 -9 -7 -8 -7 -8 -7 -7 -7 -6 -6 -7 -7 -7 -7 -7 -6 -6 -6 -5 -5 -5 -5 -5 -5 -5 -5 -5 -5 -4 -5 -4 -4
-14 -13 -13 -13 -12 -12 -11 -10 -9 -9 -9 -9 -8 -8 -8 -7 -8 -8 -8 -7 -7 -7 -7 -7 -7 -7 -7 -7 -7 -6 -6 -6 -5 -6 -5 -5 -4 -5 -4 -5 -4 -5 -4 -4
-13 -13 -13 -12 -12 -12 -11 -10 -9 -9 -9 -9 -9 -8 -8 -8 -8 -8 -8 -8 -7 -7 -8 -8 -7 -7 -7 -7 -7 -5 -5 -5 -5 -5 -5 -5 -5 -5 -5 -4 -5 -5 -5 -5
-13 -13 -12 -12 -12 -12 -11 -10 -10 -9 -9 -9 -8 -8 -8 -8 -8 -7 -7 -7 -8 -8 -8 -8 -8 -8 -8 -9 -8 -5 -5 -5 -6 -6 -6 -6 -5 -5 -5 -5 -5 -5 -5 -5
-13 -13 -13 -12 -11 -12 -11 -10 -9 -9 -9 -9 -9 -8 -8 -8 -8 -8 -8 -8 -8 -8 -8 -8 -8 -8 -9 -9 -7 -4 -5 -6 -6 -6 -6 -5 -6 -5 -5 -5 -5 -5 -5 -5
-13 -12 -12 -11 -12 -11 -10 -10 -9 -9 -9 -9 -9 -9 -8 -8 -8 -9 -8 -8 -8 -9 -8 -8 -7 -8 -9 -9 -5 -6 -6 -6 -6 -6 -7 -6 -6 -6 -6 -6 -6 -5 -5 -5
-11 -11 -11 -11 -10 -10 -10 -10 -10 -10 -10 -10 -10 -9 -9 -8 -8 -8 -9 -9 -8 -8 -8 -8 -9 -9 -9 -6 -7 -6 -6 -6 -7 -7 -7 -7 -6 -6 -6 -6 -6 -6 -6 -6
-11 -11 -11 -10 -10 -10 -10 -10 -10 -10 -10 -10 -9 -9 -9 -9 -9 -9 -9 -9 -9 -9 -8 -8 -9 -8 -7 -7 -7 -7 -7 -7 -7 -7 -7 -7 -7 -7 -7 -7 -6 -7 -7 -7
-10 -10 -10 -10 -10 -11 -11 -10 -10 -10 -10 -9 -9 -9 -9 -9 -9 -9 -9 -8 -8 -8 -8 -8 -8 -8 -7 -7 -7 -6 -7 -7 -7 -7 -7 -7 -7 -8 -8 -8 -7 -7 -7 -7
-10 -9 -10 -10 -11 -10 -10 -11 -10 -10 -10 -9 -9 -8 -8 -9 -9 -9 -9 -9 -8 -7 -7 -8 -7 -7 -8 -7 -7 -7 -7 -7 -7 -7 -7 -7 -8 -8 -8 -8 -8 -8 -7 -8
-10 -9 -10 -10 -10 -10 -10 -10 -10 -9 -9 -8 -8 -8 -8 -9 -9 -10 -9 -8 -8 -8 -7 -8 -7 -7 -7 -7 -7 -7 -7 -7 -7 -7 -7 -7 -8 -8 -8 -8 -8 -8 -8 -8
-10 -10 -10 -9 -9 -10 -9 -9 -9 -9 -9 -9 -9 -9 -9 -9 -9 -9 -9 -8 -8 -8 -7 -8 -7 -7 -7 -7 -7 -7 -7 -7 -7 -7 -8 -8 -8 -8 -8 -8 -8 -8 -9 -9
-10 -10 -9 -10 -9 -9 -9 -9 -9 -9 -9 -9 -9 -8 -8 -9 -9 -9 -9 -8 -8 -8 -8 -8 -7 -7 -7 -7 -7 -7 -7 -8 -8 -8 -8 -8 -8 -8 -8 -9 -9 -8 -8 -9
-10 -10 -10 -10 -10 -10 -9 -9 -9 -9 -9 -9 -9 -9 -9 -9 -9 -9 -9 -9 -9 -8 -7 -8 -8 -8 -8 -8 -8 -8 -8 -9 -9 -9 -9 -9 -8 -8 -8 -9 -9 -9 -9 -9
-11 -10 -10 -10 -9 -10 -10 -10 -9 -9 -9 -9 -9 -9 -9 -9 -9 -9 -9 -9 -8 -8 -8 -8 -8 -8 -8 -8 -8 -9 -9 -9 -9 -9 -9 -9 -9 -9 -9 -9 -9 -9 -10 -10

GFSNW_700_temp_171.txt.gz
Temp
-7 -8 -8 -7 -6 -7 -7 -7 -7 -6 -6 -6 -6 -6 -5 -4 -4 -4 -4 -4 -4 -3 -3 -2 -2 -2 -1 -1 -0 -0 0 -0 -0 0 1 0 1 0 -0 -1 -1 -1 -2 -2
-8 -8 -8 -8 -8 -7 -7 -8 -7 -7 -7 -7 -6 -5 -5 -5 -4 -5 -5 -5 -4 -4 -3 -3 -2 -1 -2 -3 -2 -1 -1 -1 -1 -1 -0 -0 -0 -1 -1 -2 -2 -2 -4 -1
-8 -8 -8 -8 -8 -8 -9 -8 -8 -8 -8 -7 -7 -7 -6 -6 -5 -5 -6 -5 -5 -4 -4 -3 -2 -2 -2 -3 -3 -2 -2 -2 -1 -2 -1 -1 -1 -1 -2 -3 -3 -3 -3 -2
-8 -8 -8 -8 -8 -8 -9 -8 -8 -8 -8 -8 -7 -8 -7 -6 -6 -6 -6 -5 -5 -5 -5 -4 -3 -2 -2 -3 -3 -4 -3 -2 -3 -2 -2 -2 -2 -2 -3 -3 -3 -4 -2 -2
-9 -9 -9 -9 -9 -9 -9 -9 -9 -9 -8 -7 -7 -7 -7 -6 -7 -7 -6 -7 -5 -5 -5 -4 -4 -3 -4 -3 -3 -3 -3 -3 -3 -3 -3 -3 -3 -3 -3 -3 -3 -3 -2 -2
-9 -9 -9 -9 -9 -9 -8 -8 -9 -9 -8 -8 -7 -7 -7 -6 -7 -7 -7 -7 -7 -6 -5 -5 -4 -4 -5 -4 -4 -4 -4 -4 -3 -4 -3 -4 -4 -3 -2 -2 -3 -3 -4 -2
-10 -9 -9 -9 -9 -9 -9 -9 -10 -10 -9 -8 -7 -7 -7 -7 -7 -7 -7 -7 -7 -6 -6 -5 -6 -6 -6 -5 -5 -4 -5 -5 -4 -5 -5 -6 -4 -3 -3 -3 -3 -4 -4 -3
-10 -10 -10 -9 -9 -9 -9 -9 -10 -10 -10 -8 -9 -8 -7 -7 -8 -8 -8 -7 -7 -7 -7 -7 -7 -7 -7 -6 -5 -5 -5 -5 -5 -5 -5 -4 -4 -3 -4 -4 -4 -3 -3 -3
-11 -10 -10 -10 -10 -9 -9 -9 -10 -11 -10 -8 -8 -8 -8 -8 -7 -8 -8 -7 -7 -7 -7 -7 -7 -7 -6 -5 -5 -4 -5 -5 -5 -6 -6 -6 -4 -3 -4 -4 -4 -3 -3 -3
-11 -11 -10 -10 -10 -10 -9 -8 -10 -10 -10 -9 -9 -8 -8 -8 -8 -8 -8 -7 -8 -7 -7 -8 -7 -7 -7 -6 -6 -5 -5 -5 -6 -7 -6 -6 -4 -4 -4 -5 -4 -4 -4 -4
-11 -11 -11 -11 -11 -11 -10 -9 -10 -10 -10 -9 -9 -9 -8 -8 -8 -8 -8 -8 -8 -8 -8 -8 -8 -7 -7 -6 -6 -6 -6 -5 -5 -7 -7 -6 -4 -4 -4 -4 -4 -4 -4 -3
-11 -11 -11 -12 -12 -12 -12 -10 -10 -11 -11 -10 -9 -9 -9 -8 -8 -8 -8 -8 -8 -8 -8 -8 -8 -7 -7 -7 -7 -6 -6 -6 -6 -5 -5 -5 -5 -4 -5 -5 -4 -4 -4 -4
-12 -13 -13 -13 -13 -13 -12 -11 -11 -12 -11 -10 -9 -8 -8 -9 -8 -8 -8 -8 -8 -8 -8 -8 -7 -7 -7 -7 -7 -6 -6 -6 -6 -6 -5 -6 -5 -5 -5 -5 -4 -4 -4 -4
-13 -13 -13 -13 -13 -13 -13 -12 -12 -12 -12 -11 -9 -8 -8 -9 -8 -8 -8 -8 -8 -8 -8 -8 -8 -7 -7 -7 -7 -7 -6 -7 -7 -6 -5 -6 -6 -5 -5 -5 -5 -5 -4 -4
-14 -14 -13 -13 -13 -13 -13 -12 -12 -12 -11 -10 -9 -8 -9 -8 -9 -9 -8 -8 -8 -8 -8 -8 -8 -8 -8 -8 -8 -7 -6 -6 -6 -6 -6 -6 -5 -5 -5 -5 -5 -4 -5 -4
-14 -14 -14 -14 -13 -13 -13 -13 -12 -10 -10 -9 -9 -9 -9 -9 -9 -9 -8 -8 -8 -8 -8 -8 -8 -8 -8 -9 -8 -6 -6 -6 -6 -6 -6 -6 -5 -5 -5 -5 -5 -5 -5 -5
-14 -14 -14 -14 -13 -13 -13 -12 -11 -11 -10 -10 -10 -9 -9 -9 -9 -9 -8 -8 -8 -8 -8 -8 -8 -8 -9 -9 -7 -5 -5 -6 -6 -6 -7 -5 -6 -5 -6 -6 -6 -6 -5 -5
-14 -14 -13 -13 -13 -13 -12 -11 -10 -10 -10 -10 -10 -9 -9 -9 -8 -8 -8 -9 -9 -9 -9 -8 -8 -9 -10 -8 -4 -5 -6 -6 -6 -6 -6 -6 -7 -6 -6 -6 -6 -6 -6 -5
-14 -13 -13 -13 -13 -12 -11 -11 -10 -10 -10 -10 -10 -9 -8 -8 -8 -9 -9 -10 -10 -9 -9 -8 -9 -9 -9 -4 -5 -6 -7 -7 -6 -6 -6 -7 -7 -7 -7 -7 -6 -6 -6 -6
-13 -13 -12 -13 -12 -11 -11 -11 -11 -10 -10 -10 -9 -9 -9 -8 -8 -9 -10 -10 -9 -9 -8 -8 -9 -8 -6 -6 -6 -7 -7 -8 -7 -7 -7 -7 -7 -7 -7 -7 -7 -7 -7 -7
-13 -12 -12 -11 -11 -11 -10 -10 -10 -10 -10 -10 -9 -9 -9 -9 -9 -9 -9 -9 -9 -9 -7 -8 -8 -7 -6 -6 -6 -6 -7 -7 -7 -7 -8 -7 -7 -7 -8 -8 -8 -8 -7 -7
-12 -11 -10 -10 -10 -10 -10 -10 -10 -10 -9 -9 -8 -8 -9 -9 -9 -9 -10 -10 -9 -8 -8 -8 -8 -8 -7 -6 -6 -7 -7 -7 -7 -7 -7 -7 -7 -7 -8 -8 -8 -8 -8 -8
-10 -10 -10 -10 -10 -10 -10 -10 -10 -9 -9 -8 -8 -9 -9 -9 -9 -10 -10 -9 -8 -8 -8 -8 -8 -7 -7 -7 -7 -8 -8 -7 -7 -7 -7 -7 -7 -7 -8 -8 -8 -8 -8 -8
-10 -10 -10 -10 -9 -9 -9 -9 -9 -9 -8 -8 -9 -9 -9 -9 -10 -10 -10 -9 -8 -8 -8 -7 -7 -7 -7 -8 -8 -8 -8 -7 -7 -7 -7 -7 -7 -8 -8 -8 -8 -9 -9 -9
-10 -10 -9 -9 -9 -9 -9 -9 -9 -9 -9 -9 -10 -10 -9 -9 -9 -9 -9 -9 -9 -8 -8 -8 -7 -7 -8 -8 -8 -8 -7 -7 -7 -8 -8 -8 -8 -8 -8 -8 -9 -9 -9 -9
-10 -10 -9 -9 -9 -9 -9 -9 -9 -10 -10 -10 -10 -10 -10 -9 -9 -9 -9 -9 -8 -8 -7 -8 -8 -8 -8 -8 -8 -7 -8 -8 -8 -9 -9 -9 -8 -9 -9 -9 -9 -9 -9 -9
-10 -10 -9 -9 -9 -10 -10 -9 -10 -10 -10 -10 -10 -9 -9 -9 -9 -9 -9 -8 -8 -8 -8 -8 -8 -8 -8 -8 -8 -8 -8 -9 -9 -9 -9 -9 -9 -9 -9 -9 -10 -10 -10 -10